sat.trackr.live / text

‹ back to catalog

STARLINK-31969

NORAD 59889 · 2024-100E

PAYLOAD ACTIVE UNKNOWN

§ Identity

Operator
Country
US
Launch date
2024-05-28
Launch site
AFETR
Launch vehicle
Mass (kg)
RCS (m²)

Purposes: comms

External: N2YO · Heavens-Above · Gunter

§ Orbital elements

Epoch: 2026-09-20T21:50:40.803936Z

Period
94.27 min
Inclination
43.0016°
Eccentricity
0.0001207
Mean motion
15.27579506 rev/d
Perigee alt
482.2 km
Apogee alt
483.9 km
Semi-major
6,861.2 km
B*
-7.0580e-5
RAAN
99.4138°
Arg perigee
271.6969°
Mean anomaly
88.3744°
Rev number
13,105

§ Raw data

STARLINK-319691 59889U 24100E   26263.91019449 -.00002204  00000+0 -70580-4 0  99952 59889  43.0016  99.4138 0001207 271.6969  88.3744 15.27579506131050

JSON: /api/v1/satellites/59889 · /tle

For live sub-satellite position, see the globe view (requires WebGL).

§ Visibility from observer

Set your observer location to see the next 7 days of passes ≥ 10°. The values pass through the URL so the page stays shareable.

No JS? Fill the form by hand. The geolocation button needs JavaScript.